Date,TemperatureHighF,TemperatureAvgF,TemperatureLowF,DewpointHighF,DewpointAvgF,DewpointLowF,HumidityHigh,HumidityAvg,HumidityLow,PressureMaxIn,PressureMinIn,WindSpeedMaxMPH,WindSpeedAvgMPH,GustSpeedMaxMPH,PrecipitationSumIn
2013-11-1,72.0,55.4,43.9,52.7,46.6,42.8,99,77,36,29.79,29.61,17,2,0,0.02
2013-11-2,59.5,47.3,36.7,44.6,40.8,35.9,99,80,50,30.14,29.79,13,2,0,0.00
2013-11-3,65.1,46.9,31.1,44.9,36.2,30.9,99,72,34,30.27,30.11,5,1,0,0.00
2013-11-4,59.4,51.8,45.5,49.4,43.6,38.2,97,74,60,30.21,30.11,9,3,0,0.05
2013-11-5,67.5,57.4,49.6,53.5,49.8,48.1,98,77,54,30.25,30.01,11,2,0,0.01
2013-11-6,60.6,51.3,38.8,55.6,48.5,37.5,97,90,72,30.20,29.94,17,5,0,0.68
2013-11-7,63.3,43.8,31.8,39.2,35.5,31.6,99,78,36,30.35,30.20,9,1,0,0.00
2013-11-8,62.4,49.7,31.6,39.6,35.0,31.4,99,61,37,30.32,30.11,10,2,0,0.00
2013-11-9,67.8,50.9,37.6,48.5,42.7,35.6,98,76,45,30.17,30.03,12,2,0,0.00
2013-11-10,63.9,47.8,34.0,42.1,35.6,30.3,99,69,29,30.35,30.17,12,3,0,0.00
2013-11-11,63.7,47.8,33.4,48.9,38.0,32.9,98,72,41,30.31,30.07,17,3,0,0.02
2013-11-12,39.6,32.7,21.9,37.7,23.4,17.7,95,70,45,30.66,30.32,17,7,0,0.00
2013-11-13,46.6,30.8,17.2,27.0,20.4,12.7,98,70,25,30.67,30.34,7,1,0,0.00
2013-11-14,55.2,40.4,23.5,29.9,26.5,21.5,95,60,35,30.34,30.06,11,3,0,0.00
2013-11-15,53.1,46.7,39.7,48.2,37.6,27.1,92,71,58,30.07,29.93,9,3,0,0.00
2013-11-16,64.9,57.5,50.7,63.3,55.8,48.8,97,94,90,29.94,29.65,19,6,0,0.30
2013-11-17,80.8,66.8,50.7,70.4,53.0,25.4,98,69,25,29.89,29.41,22,7,0,2.29
2013-11-18,61.9,47.1,32.4,42.5,33.8,26.6,99,65,27,30.23,29.91,18,3,0,0.00
2013-11-19,52.5,38.8,29.3,31.6,28.7,23.1,99,71,36,30.29,30.14,7,2,0,0.00
2013-11-20,57.9,42.7,27.9,38.4,33.8,26.9,99,73,47,30.17,30.00,9,2,0,0.00
2013-11-21,53.6,51.3,46.2,53.3,47.2,38.0,99,87,65,30.13,30.05,6,2,0,0.95
2013-11-22,53.4,44.6,37.8,53.1,43.2,35.1,99,95,90,30.41,30.11,18,7,0,0.04
2013-11-23,42.1,33.4,22.8,35.1,23.4,13.1,93,68,42,30.63,30.41,17,8,0,0.00
2013-11-24,36.0,25.9,17.1,16.6,13.7,10.3,85,61,37,30.69,30.41,10,3,0,0.00
2013-11-25,34.5,31.6,28.4,28.6,22.5,15.3,87,69,57,30.42,30.12,6,1,0,0.00
2013-11-26,43.2,35.1,25.9,30.5,26.3,12.4,91,71,52,30.15,29.95,20,7,0,0.11
2013-11-27,34.5,24.8,17.2,15.5,12.0,8.3,92,60,38,30.31,30.14,18,6,0,0.00
2013-11-28,46.6,30.5,16.7,29.9,23.0,13.7,97,75,43,30.42,30.23,11,3,0,0.00
2013-11-29,53.6,34.4,21.2,33.6,27.3,20.5,99,79,42,30.54,30.35,6,1,0,0.00
2013-11-30,54.7,39.3,24.4,38.0,32.3,23.7,99,78,53,30.35,30.09,11,3,0,0.00